Time,TemperatureF,DewpointF,PressureIn,WindDirection,WindDirectionDegrees,WindSpeedMPH,WindSpeedGustMPH,Humidity,HourlyPrecipIn,Conditions,Clouds,dailyrainin,SoftwareType,DateUTC
2013-05-20 00:32:00,56.8,57.0,30.83,East,90,3.9,3.9,100,0.06,,,0.02,TxWx,2013-05-20 04:32:00,
2013-05-20 00:37:00,56.9,57.0,30.83,East,90,7.2,8.7,100,0.00,,,0.02,TxWx,2013-05-20 04:37:00,
2013-05-20 00:43:00,57.0,57.0,30.82,East,88,7.5,7.5,100,0.00,,,0.02,TxWx,2013-05-20 04:43:00,
2013-05-20 00:48:00,57.0,57.0,30.82,East,90,6.0,6.0,100,0.00,,,0.02,TxWx,2013-05-20 04:48:00,
2013-05-20 00:53:00,57.1,57.0,30.81,East,89,7.2,7.8,100,0.00,,,0.03,TxWx,2013-05-20 04:53:00,
2013-05-20 00:58:00,57.1,57.0,30.81,East,91,6.6,6.9,100,0.06,,,0.03,TxWx,2013-05-20 04:58:00,
2013-05-20 01:03:00,57.2,57.0,30.80,East,89,4.8,4.8,100,0.06,,,0.03,TxWx,2013-05-20 05:03:00,
2013-05-20 01:08:00,57.2,57.0,30.80,East,89,5.7,5.7,100,0.00,,,0.03,TxWx,2013-05-20 05:08:00,
2013-05-20 01:14:00,57.2,57.0,30.80,East,91,6.9,6.9,100,0.00,,,0.03,TxWx,2013-05-20 05:14:00,
2013-05-20 01:19:00,57.2,57.0,30.80,East,91,5.4,5.4,100,0.00,,,0.04,TxWx,2013-05-20 05:19:00,
2013-05-20 01:24:00,57.2,57.0,30.80,East,89,4.2,4.2,100,0.00,,,0.04,TxWx,2013-05-20 05:24:00,
2013-05-20 01:29:00,57.3,57.0,30.79,East,88,6.9,6.9,100,0.06,,,0.04,TxWx,2013-05-20 05:29:00,
2013-05-20 01:35:00,57.3,57.0,30.79,East,89,2.7,3.3,100,0.06,,,0.04,TxWx,2013-05-20 05:35:00,
2013-05-20 01:40:00,57.3,57.0,30.79,East,89,4.2,4.8,100,0.00,,,0.04,TxWx,2013-05-20 05:40:00,
2013-05-20 01:45:00,57.2,57.0,30.79,East,90,5.7,5.7,100,0.00,,,0.04,TxWx,2013-05-20 05:45:00,
2013-05-20 01:50:00,57.3,57.0,30.79,East,90,9.0,10.5,100,0.00,,,0.04,TxWx,2013-05-20 05:50:00,
2013-05-20 01:55:00,57.3,57.0,30.79,East,89,6.0,6.6,100,0.00,,,0.04,TxWx,2013-05-20 05:55:00,
2013-05-20 02:00:00,57.2,57.0,30.78,East,87,7.8,9.0,100,0.00,,,0.04,TxWx,2013-05-20 06:00:00,
2013-05-20 02:05:00,57.3,57.0,30.79,East,89,3.0,3.0,100,0.00,,,0.04,TxWx,2013-05-20 06:05:00,
2013-05-20 02:10:00,57.3,57.0,30.78,East,88,3.0,3.0,100,0.00,,,0.04,TxWx,2013-05-20 06:10:00,
2013-05-20 02:16:00,57.2,57.0,30.78,East,88,4.5,4.8,100,0.00,,,0.04,TxWx,2013-05-20 06:16:00,
2013-05-20 02:21:00,57.3,57.0,30.78,East,88,2.4,3.0,100,0.00,,,0.04,TxWx,2013-05-20 06:21:00,
2013-05-20 02:26:00,57.3,57.0,30.78,East,88,2.7,3.3,100,0.00,,,0.04,TxWx,2013-05-20 06:26:00,
2013-05-20 02:31:00,57.3,57.0,30.78,East,87,2.1,2.4,100,0.00,,,0.05,TxWx,2013-05-20 06:31:00,
2013-05-20 02:36:00,57.3,57.0,30.78,East,88,2.4,2.4,100,0.00,,,0.05,TxWx,2013-05-20 06:36:00,
2013-05-20 02:41:00,57.2,57.0,30.77,East,88,2.4,2.7,100,0.06,,,0.05,TxWx,2013-05-20 06:41:00,
2013-05-20 02:47:00,57.2,57.0,30.77,East,86,3.3,3.3,100,0.00,,,0.05,TxWx,2013-05-20 06:47:00,
2013-05-20 02:52:00,57.3,57.0,30.77,East,87,0.6,0.6,100,0.00,,,0.05,TxWx,2013-05-20 06:52:00,
2013-05-20 02:57:00,57.2,57.0,30.77,East,87,1.8,1.8,100,0.00,,,0.05,TxWx,2013-05-20 06:57:00,
2013-05-20 03:02:00,57.2,57.0,30.76,East,89,2.4,2.4,100,0.00,,,0.05,TxWx,2013-05-20 07:02:00,
2013-05-20 03:07:00,57.2,57.0,30.76,East,89,1.5,1.5,100,0.00,,,0.05,TxWx,2013-05-20 07:07:00,
2013-05-20 03:13:00,57.1,57.0,30.76,East,89,3.6,3.6,100,0.00,,,0.05,TxWx,2013-05-20 07:13:00,
2013-05-20 03:18:00,57.2,57.0,30.76,East,88,1.5,1.8,100,0.00,,,0.05,TxWx,2013-05-20 07:18:00,
2013-05-20 03:23:00,57.1,57.0,30.75,East,87,1.2,1.5,100,0.00,,,0.05,TxWx,2013-05-20 07:23:00,
2013-05-20 03:28:00,57.2,57.0,30.75,East,87,1.2,1.5,100,0.00,,,0.05,TxWx,2013-05-20 07:28:00,
2013-05-20 03:34:00,57.2,57.0,30.75,East,87,0.3,0.3,100,0.00,,,0.05,TxWx,2013-05-20 07:34:00,
2013-05-20 03:39:00,57.2,57.0,30.75,East,88,2.7,2.7,100,0.00,,,0.05,TxWx,2013-05-20 07:39:00,
2013-05-20 03:44:00,57.2,57.0,30.74,East,87,3.6,3.6,100,0.00,,,0.05,TxWx,2013-05-20 07:44:00,
2013-05-20 03:49:00,57.1,57.0,30.74,East,86,3.0,3.0,100,0.00,,,0.05,TxWx,2013-05-20 07:49:00,
2013-05-20 03:55:00,57.2,57.0,30.74,East,88,2.4,2.4,100,0.00,,,0.05,TxWx,2013-05-20 07:55:00,
2013-05-20 04:00:00,57.1,57.0,30.73,East,88,2.7,2.7,100,0.00,,,0.05,TxWx,2013-05-20 08:00:00,
2013-05-20 04:05:00,57.2,57.0,30.74,East,89,1.5,1.5,100,0.00,,,0.05,TxWx,2013-05-20 08:05:00,
2013-05-20 04:10:00,57.3,57.0,30.74,East,88,0.6,0.6,100,0.00,,,0.05,TxWx,2013-05-20 08:10:00,
2013-05-20 04:15:00,57.3,57.0,30.73,East,90,1.2,1.2,100,0.00,,,0.05,TxWx,2013-05-20 08:15:00,
2013-05-20 04:20:00,57.3,57.0,30.73,East,91,2.1,2.1,100,0.00,,,0.05,TxWx,2013-05-20 08:20:00,
2013-05-20 04:25:00,57.3,57.0,30.73,East,88,2.1,2.1,100,0.00,,,0.05,TxWx,2013-05-20 08:25:00,
2013-05-20 04:31:00,57.4,57.0,30.73,East,88,2.1,2.4,100,0.00,,,0.05,TxWx,2013-05-20 08:31:00,
2013-05-20 04:36:00,57.4,57.0,30.72,East,88,3.0,3.3,100,0.00,,,0.05,TxWx,2013-05-20 08:36:00,
2013-05-20 04:41:00,57.5,58.0,30.72,East,88,1.8,2.4,100,0.00,,,0.05,TxWx,2013-05-20 08:41:00,
2013-05-20 04:46:00,57.5,58.0,30.72,East,88,3.9,4.5,100,0.00,,,0.05,TxWx,2013-05-20 08:46:00,
2013-05-20 04:52:00,57.5,58.0,30.72,East,88,3.3,3.9,100,0.00,,,0.05,TxWx,2013-05-20 08:52:00,
2013-05-20 04:57:00,57.6,58.0,30.72,East,88,3.0,3.0,100,0.00,,,0.05,TxWx,2013-05-20 08:57:00,
2013-05-20 05:02:00,57.6,58.0,30.72,East,87,2.7,2.7,100,0.00,,,0.05,TxWx,2013-05-20 09:02:00,
2013-05-20 05:07:00,57.7,58.0,30.71,East,86,1.8,1.8,100,0.00,,,0.05,TxWx,2013-05-20 09:07:00,
2013-05-20 05:12:00,57.8,58.0,30.72,East,94,1.5,1.5,100,0.00,,,0.05,TxWx,2013-05-20 09:12:00,
2013-05-20 05:18:00,57.9,58.0,30.72,East,89,1.5,1.5,100,0.00,,,0.05,TxWx,2013-05-20 09:18:00,
2013-05-20 05:23:00,57.8,58.0,30.71,East,86,3.6,3.6,100,0.00,,,0.05,TxWx,2013-05-20 09:23:00,
2013-05-20 05:28:00,57.8,58.0,30.71,East,87,3.9,3.9,100,0.00,,,0.05,TxWx,2013-05-20 09:28:00,
2013-05-20 05:33:00,57.8,58.0,30.71,East,86,3.3,3.3,100,0.00,,,0.05,TxWx,2013-05-20 09:33:00,
2013-05-20 05:38:00,57.8,58.0,30.71,East,88,2.4,2.4,100,0.00,,,0.05,TxWx,2013-05-20 09:38:00,
2013-05-20 05:43:00,57.8,58.0,30.71,East,89,2.7,2.7,100,0.00,,,0.05,TxWx,2013-05-20 09:43:00,
2013-05-20 05:48:00,57.9,58.0,30.71,East,88,0.9,1.2,100,0.00,,,0.05,TxWx,2013-05-20 09:48:00,
2013-05-20 05:53:00,58.0,58.0,30.72,East,89,0.0,0.0,100,0.00,,,0.05,TxWx,2013-05-20 09:53:00,
2013-05-20 05:59:00,58.0,58.0,30.72,East,90,0.0,0.0,100,0.00,,,0.05,TxWx,2013-05-20 09:59:00,
2013-05-20 06:04:00,58.1,58.0,30.72,East,91,0.0,0.3,100,0.00,,,0.05,TxWx,2013-05-20 10:04:00,
2013-05-20 06:09:00,58.1,58.0,30.72,East,88,0.9,0.9,100,0.00,,,0.05,TxWx,2013-05-20 10:09:00,
2013-05-20 06:14:00,58.1,58.0,30.72,East,86,2.1,2.4,100,0.00,,,0.05,TxWx,2013-05-20 10:14:00,
2013-05-20 06:20:00,58.2,58.0,30.71,East,89,2.4,2.4,100,0.00,,,0.05,TxWx,2013-05-20 10:20:00,
2013-05-20 06:25:00,58.3,58.0,30.72,East,90,1.2,1.2,100,0.00,,,0.05,TxWx,2013-05-20 10:25:00,
2013-05-20 06:30:00,58.2,58.0,30.71,East,88,1.5,1.5,100,0.00,,,0.05,TxWx,2013-05-20 10:30:00,
2013-05-20 06:35:00,58.3,58.0,30.71,East,88,1.2,1.2,100,0.00,,,0.05,TxWx,2013-05-20 10:35:00,
2013-05-20 06:41:00,58.3,58.0,30.71,East,88,0.6,0.6,100,0.00,,,0.05,TxWx,2013-05-20 10:41:00,
2013-05-20 06:46:00,58.6,59.0,30.71,East,92,0.0,0.3,100,0.00,,,0.05,TxWx,2013-05-20 10:46:00,
2013-05-20 06:51:00,58.8,59.0,30.71,East,93,0.0,0.0,100,0.00,,,0.05,TxWx,2013-05-20 10:51:00,
2013-05-20 06:56:00,58.7,59.0,30.71,East,94,2.4,2.4,100,0.00,,,0.05,TxWx,2013-05-20 10:56:00,
2013-05-20 07:01:00,58.9,59.0,30.72,East,93,0.0,0.0,100,0.00,,,0.05,TxWx,2013-05-20 11:01:00,
2013-05-20 07:06:00,59.0,59.0,30.72,East,91,0.0,0.0,100,0.00,,,0.05,TxWx,2013-05-20 11:06:00,
2013-05-20 07:11:00,59.0,59.0,30.72,East,95,2.1,2.1,100,0.00,,,0.05,TxWx,2013-05-20 11:11:00,
2013-05-20 07:17:00,59.0,59.0,30.73,East,92,1.5,1.5,100,0.00,,,0.05,TxWx,2013-05-20 11:17:00,
2013-05-20 07:22:00,59.1,59.0,30.73,East,92,0.3,0.6,100,0.00,,,0.05,TxWx,2013-05-20 11:22:00,
2013-05-20 07:27:00,59.2,59.0,30.73,East,88,1.8,1.8,100,0.00,,,0.05,TxWx,2013-05-20 11:27:00,
2013-05-20 07:32:00,59.3,59.0,30.74,East,92,1.8,1.8,100,0.00,,,0.05,TxWx,2013-05-20 11:32:00,
2013-05-20 07:37:00,59.2,59.0,30.73,East,88,2.4,2.4,100,0.00,,,0.05,TxWx,2013-05-20 11:37:00,
2013-05-20 07:42:00,59.3,59.0,30.72,East,88,3.6,4.2,100,0.00,,,0.05,TxWx,2013-05-20 11:42:00,
2013-05-20 07:47:00,59.3,59.0,30.72,East,88,2.7,2.7,100,0.00,,,0.05,TxWx,2013-05-20 11:47:00,
2013-05-20 07:52:00,59.6,60.0,30.72,East,87,3.0,3.0,100,0.00,,,0.05,TxWx,2013-05-20 11:52:00,
2013-05-20 07:58:00,59.5,60.0,30.72,East,86,6.0,6.0,100,0.00,,,0.05,TxWx,2013-05-20 11:58:00,
2013-05-20 08:03:00,59.7,60.0,30.72,East,87,3.9,4.2,100,0.00,,,0.05,TxWx,2013-05-20 12:03:00,
2013-05-20 08:08:00,60.0,60.0,30.72,East,87,3.6,3.6,100,0.00,,,0.05,TxWx,2013-05-20 12:08:00,
2013-05-20 08:13:00,60.0,60.0,30.72,East,88,3.3,3.6,100,0.00,,,0.05,TxWx,2013-05-20 12:13:00,
2013-05-20 08:18:00,60.1,60.0,30.72,East,88,2.7,2.7,100,0.00,,,0.05,TxWx,2013-05-20 12:18:00,
2013-05-20 08:23:00,60.1,60.0,30.72,East,86,4.8,4.8,100,0.00,,,0.05,TxWx,2013-05-20 12:23:00,
2013-05-20 08:29:00,60.4,60.0,30.72,East,90,4.2,4.2,100,0.00,,,0.05,TxWx,2013-05-20 12:29:00,
2013-05-20 08:34:00,60.5,61.0,30.72,East,87,5.1,5.7,100,0.00,,,0.05,TxWx,2013-05-20 12:34:00,
2013-05-20 08:39:00,60.7,61.0,30.72,East,88,2.1,2.1,100,0.00,,,0.05,TxWx,2013-05-20 12:39:00,
2013-05-20 08:44:00,60.9,61.0,30.72,East,90,3.6,3.6,100,0.00,,,0.05,TxWx,2013-05-20 12:44:00,
2013-05-20 08:49:00,61.1,61.0,30.72,East,81,1.2,1.5,100,0.00,,,0.05,TxWx,2013-05-20 12:49:00,
2013-05-20 08:54:00,61.5,62.0,30.72,East,88,2.4,2.4,100,0.00,,,0.05,TxWx,2013-05-20 12:54:00,
2013-05-20 09:00:00,61.9,62.0,30.73,East,91,3.0,3.0,100,0.00,,,0.05,TxWx,2013-05-20 13:00:00,
2013-05-20 09:05:00,62.1,62.0,30.73,East,81,2.7,2.7,100,0.00,,,0.05,TxWx,2013-05-20 13:05:00,
2013-05-20 09:10:00,62.2,62.0,30.73,East,97,2.4,2.4,100,0.00,,,0.05,TxWx,2013-05-20 13:10:00,
2013-05-20 09:15:00,62.5,63.0,30.73,East,92,2.1,2.1,100,0.00,,,0.05,TxWx,2013-05-20 13:15:00,
2013-05-20 09:20:00,62.5,63.0,30.73,East,95,3.0,3.0,100,0.00,,,0.05,TxWx,2013-05-20 13:20:00,
2013-05-20 09:26:00,62.7,63.0,30.73,East,93,2.7,2.7,99,0.00,,,0.05,TxWx,2013-05-20 13:26:00,
2013-05-20 09:31:00,62.8,63.0,30.73,East,94,3.0,3.0,99,0.00,,,0.05,TxWx,2013-05-20 13:31:00,
2013-05-20 09:36:00,62.9,62.0,30.73,East,90,1.8,1.8,98,0.00,,,0.05,TxWx,2013-05-20 13:36:00,
2013-05-20 09:41:00,62.8,62.0,30.72,East,90,4.5,5.1,98,0.00,,,0.05,TxWx,2013-05-20 13:41:00,
2013-05-20 09:46:00,63.0,62.0,30.72,East,90,3.9,4.5,98,0.00,,,0.05,TxWx,2013-05-20 13:46:00,
2013-05-20 09:51:00,63.3,62.0,30.71,East,87,2.7,3.9,97,0.00,,,0.05,TxWx,2013-05-20 13:51:00,
2013-05-20 09:57:00,63.4,62.0,30.71,East,89,2.4,3.0,97,0.00,,,0.05,TxWx,2013-05-20 13:57:00,
2013-05-20 10:02:00,63.9,63.0,30.70,East,88,1.5,1.8,97,0.00,,,0.05,TxWx,2013-05-20 14:02:00,
2013-05-20 10:07:00,63.3,62.0,30.70,East,83,2.7,2.7,96,0.00,,,0.05,TxWx,2013-05-20 14:07:00,
2013-05-20 10:12:00,63.8,63.0,30.71,East,91,2.4,2.7,96,0.00,,,0.05,TxWx,2013-05-20 14:12:00,
2013-05-20 10:17:00,63.8,63.0,30.71,East,87,3.3,3.3,95,0.00,,,0.05,TxWx,2013-05-20 14:17:00,
2013-05-20 10:23:00,63.8,62.0,30.70,East,88,3.0,3.0,95,0.00,,,0.05,TxWx,2013-05-20 14:23:00,
2013-05-20 10:28:00,64.5,64.0,30.71,East,88,2.1,2.4,95,0.00,,,0.05,TxWx,2013-05-20 14:28:00,
2013-05-20 10:33:00,64.6,63.0,30.70,East,88,4.5,5.1,94,0.00,,,0.05,TxWx,2013-05-20 14:33:00,
2013-05-20 10:38:00,64.8,63.0,30.70,East,89,2.4,2.4,94,0.00,,,0.05,TxWx,2013-05-20 14:38:00,
2013-05-20 10:43:00,65.2,63.0,30.70,East,89,0.3,0.6,94,0.00,,,0.05,TxWx,2013-05-20 14:43:00,
2013-05-20 10:48:00,65.4,63.0,30.70,East,88,2.7,3.3,93,0.00,,,0.05,TxWx,2013-05-20 14:48:00,
2013-05-20 10:53:00,65.9,64.0,30.70,East,87,5.4,5.4,93,0.00,,,0.05,TxWx,2013-05-20 14:53:00,
2013-05-20 10:59:00,65.8,64.0,30.71,East,87,5.4,5.7,92,0.00,,,0.05,TxWx,2013-05-20 14:59:00,
2013-05-20 11:04:00,65.9,64.0,30.71,East,87,2.4,2.4,93,0.00,,,0.05,TxWx,2013-05-20 15:04:00,
2013-05-20 11:09:00,65.9,64.0,30.70,East,87,4.2,4.2,93,0.00,,,0.05,TxWx,2013-05-20 15:09:00,
2013-05-20 11:14:00,66.2,64.0,30.70,East,88,4.8,5.4,93,0.00,,,0.05,TxWx,2013-05-20 15:14:00,
2013-05-20 11:20:00,66.0,64.0,30.70,East,88,3.6,3.9,92,0.00,,,0.05,TxWx,2013-05-20 15:20:00,
2013-05-20 11:25:00,66.1,64.0,30.69,East,87,8.7,8.7,92,0.00,,,0.05,TxWx,2013-05-20 15:25:00,
2013-05-20 11:30:00,66.1,63.0,30.69,East,87,5.7,6.3,92,0.00,,,0.05,TxWx,2013-05-20 15:30:00,
2013-05-20 11:35:00,66.2,63.0,30.68,East,87,7.8,7.8,92,0.00,,,0.05,TxWx,2013-05-20 15:35:00,
2013-05-20 11:40:00,66.7,64.0,30.68,East,87,5.1,5.7,92,0.00,,,0.05,TxWx,2013-05-20 15:40:00,
2013-05-20 11:45:00,66.9,64.0,30.68,East,88,6.3,6.9,90,0.00,,,0.05,TxWx,2013-05-20 15:45:00,
2013-05-20 11:50:00,66.6,64.0,30.67,East,87,8.1,8.1,90,0.00,,,0.05,TxWx,2013-05-20 15:50:00,
2013-05-20 11:55:00,67.6,64.0,30.67,East,88,3.3,3.6,89,0.00,,,0.05,TxWx,2013-05-20 15:55:00,
2013-05-20 12:01:00,68.6,65.0,30.67,East,84,7.8,8.1,89,0.00,,,0.05,TxWx,2013-05-20 16:01:00,
2013-05-20 12:06:00,68.5,65.0,30.67,East,83,7.2,7.8,87,0.00,,,0.05,TxWx,2013-05-20 16:06:00,
2013-05-20 12:11:00,69.3,65.0,30.67,East,86,5.7,5.7,87,0.00,,,0.05,TxWx,2013-05-20 16:11:00,
2013-05-20 12:17:00,69.6,65.0,30.66,East,87,9.0,10.5,85,0.00,,,0.05,TxWx,2013-05-20 16:17:00,
2013-05-20 12:22:00,69.3,64.0,30.66,East,88,3.6,3.9,85,0.00,,,0.05,TxWx,2013-05-20 16:22:00,
2013-05-20 12:27:00,69.5,64.0,30.66,East,86,2.7,3.0,85,0.00,,,0.05,TxWx,2013-05-20 16:27:00,
2013-05-20 12:32:00,70.8,66.0,30.66,East,86,6.9,6.9,86,0.00,,,0.05,TxWx,2013-05-20 16:32:00,
2013-05-20 12:37:00,69.5,65.0,30.65,East,87,7.2,7.2,83,0.00,,,0.05,TxWx,2013-05-20 16:37:00,
2013-05-20 12:42:00,69.5,65.0,30.65,East,87,8.4,8.4,86,0.00,,,0.05,TxWx,2013-05-20 16:42:00,
2013-05-20 12:47:00,70.0,65.0,30.65,East,82,7.8,8.1,85,0.00,,,0.05,TxWx,2013-05-20 16:47:00,
2013-05-20 12:53:00,71.1,66.0,30.64,East,86,3.3,3.3,84,0.00,,,0.05,TxWx,2013-05-20 16:53:00,
2013-05-20 12:58:00,71.6,67.0,30.64,East,86,9.6,10.5,83,0.00,,,0.05,TxWx,2013-05-20 16:58:00,
2013-05-20 13:03:00,71.8,66.0,30.64,East,86,9.3,9.3,81,0.00,,,0.05,TxWx,2013-05-20 17:03:00,
2013-05-20 13:08:00,72.4,66.0,30.64,East,85,6.0,6.0,81,0.00,,,0.05,TxWx,2013-05-20 17:08:00,
2013-05-20 13:13:00,74.4,66.0,30.64,East,87,7.5,7.8,76,0.00,,,0.05,TxWx,2013-05-20 17:13:00,
2013-05-20 13:18:00,74.9,66.0,30.63,East,88,3.9,4.5,74,0.00,,,0.05,TxWx,2013-05-20 17:18:00,
2013-05-20 13:24:00,75.4,65.0,30.63,East,91,0.9,0.9,72,0.00,,,0.05,TxWx,2013-05-20 17:24:00,
2013-05-20 13:29:00,75.7,65.0,30.63,East,91,9.0,9.0,70,0.00,,,0.05,TxWx,2013-05-20 17:29:00,
2013-05-20 13:34:00,75.8,65.0,30.62,East,91,2.1,2.1,69,0.00,,,0.05,TxWx,2013-05-20 17:34:00,
2013-05-20 13:39:00,75.8,64.0,30.62,East,93,4.2,4.2,67,0.00,,,0.05,TxWx,2013-05-20 17:39:00,
2013-05-20 13:44:00,76.0,65.0,30.62,East,92,4.8,5.7,69,0.00,,,0.05,TxWx,2013-05-20 17:44:00,
2013-05-20 13:49:00,77.0,65.0,30.62,East,84,3.6,3.6,68,0.00,,,0.05,TxWx,2013-05-20 17:49:00,
2013-05-20 13:55:00,76.8,65.0,30.61,East,84,6.3,6.9,67,0.00,,,0.05,TxWx,2013-05-20 17:55:00,
2013-05-20 14:00:00,77.0,65.0,30.62,East,84,2.1,3.6,67,0.00,,,0.05,TxWx,2013-05-20 18:00:00,
2013-05-20 14:05:00,77.1,65.0,30.61,East,83,3.0,3.0,67,0.00,,,0.05,TxWx,2013-05-20 18:05:00,
2013-05-20 14:10:00,77.5,65.0,30.62,East,84,7.8,8.4,65,0.00,,,0.05,TxWx,2013-05-20 18:10:00,
2013-05-20 14:15:00,77.2,64.0,30.62,East,84,9.3,10.2,65,0.00,,,0.05,TxWx,2013-05-20 18:15:00,
2013-05-20 14:20:00,77.6,64.0,30.62,East,82,5.7,5.7,63,0.00,,,0.05,TxWx,2013-05-20 18:20:00,
2013-05-20 14:25:00,77.8,65.0,30.61,East,85,1.2,1.2,64,0.00,,,0.05,TxWx,2013-05-20 18:25:00,
2013-05-20 14:31:00,78.5,66.0,30.61,East,83,3.0,3.6,67,0.00,,,0.05,TxWx,2013-05-20 18:31:00,
2013-05-20 14:36:00,78.2,64.0,30.61,East,84,7.5,7.8,63,0.00,,,0.05,TxWx,2013-05-20 18:36:00,
2013-05-20 14:41:00,77.7,65.0,30.60,East,84,1.8,2.1,64,0.00,,,0.05,TxWx,2013-05-20 18:41:00,
2013-05-20 14:46:00,78.7,66.0,30.60,East,83,7.8,10.8,65,0.00,,,0.05,TxWx,2013-05-20 18:46:00,
2013-05-20 14:51:00,78.3,65.0,30.60,East,83,6.6,6.6,65,0.00,,,0.05,TxWx,2013-05-20 18:51:00,
2013-05-20 14:57:00,78.4,65.0,30.60,East,83,6.6,6.6,65,0.00,,,0.05,TxWx,2013-05-20 18:57:00,
2013-05-20 15:02:00,78.0,65.0,30.60,East,83,7.8,8.7,65,0.00,,,0.05,TxWx,2013-05-20 19:02:00,
2013-05-20 15:07:00,76.2,65.0,30.59,East,83,10.5,10.5,68,0.00,,,0.05,TxWx,2013-05-20 19:07:00,
2013-05-20 15:12:00,77.5,67.0,30.59,East,83,7.5,9.6,70,0.00,,,0.05,TxWx,2013-05-20 19:12:00,
2013-05-20 15:17:00,77.6,67.0,30.59,East,83,5.1,6.0,69,0.00,,,0.05,TxWx,2013-05-20 19:17:00,
2013-05-20 15:22:00,77.1,66.0,30.59,East,83,9.9,9.9,69,0.00,,,0.05,TxWx,2013-05-20 19:22:00,
2013-05-20 15:28:00,76.7,66.0,30.59,East,83,11.7,11.7,69,0.00,,,0.05,TxWx,2013-05-20 19:28:00,
2013-05-20 15:33:00,77.1,66.0,30.59,East,83,13.5,13.5,69,0.00,,,0.05,TxWx,2013-05-20 19:33:00,
2013-05-20 15:38:00,77.4,66.0,30.59,East,83,12.0,12.0,68,0.00,,,0.05,TxWx,2013-05-20 19:38:00,
2013-05-20 15:43:00,77.3,66.0,30.59,East,83,5.7,5.7,69,0.00,,,0.05,TxWx,2013-05-20 19:43:00,
2013-05-20 15:48:00,77.8,66.0,30.59,East,83,6.0,6.0,67,0.00,,,0.05,TxWx,2013-05-20 19:48:00,
2013-05-20 15:53:00,77.0,65.0,30.58,East,83,8.4,8.7,67,0.00,,,0.05,TxWx,2013-05-20 19:53:00,
2013-05-20 15:58:00,76.8,66.0,30.58,East,84,8.4,8.4,68,0.00,,,0.05,TxWx,2013-05-20 19:58:00,
2013-05-20 16:03:00,65.8,65.0,30.61,East,82,2.7,2.7,97,0.00,,,0.00,TxWx,2013-05-20 20:03:00,
2013-05-20 16:04:00,77.4,66.0,30.58,East,83,8.4,8.4,68,0.00,,,0.05,TxWx,2013-05-20 20:04:00,
2013-05-20 16:05:00,65.5,65.0,30.61,East,93,2.1,2.1,96,0.00,,,0.00,TxWx,2013-05-20 20:05:00,
2013-05-20 16:06:00,65.4,64.0,30.61,East,82,1.5,1.5,96,0.00,,,0.00,TxWx,2013-05-20 20:06:00,
2013-05-20 16:07:00,65.4,64.0,30.61,East,83,0.9,1.2,96,0.00,,,0.00,TxWx,2013-05-20 20:07:00,
2013-05-20 16:08:00,65.4,64.0,30.61,East,83,1.2,1.2,96,0.00,,,0.00,TxWx,2013-05-20 20:08:00,
2013-05-20 16:09:00,78.1,66.0,30.58,East,84,6.3,6.3,67,0.00,,,0.05,TxWx,2013-05-20 20:09:00,
2013-05-20 16:10:00,65.3,64.0,30.61,East,92,0.3,0.6,96,0.00,,,0.00,TxWx,2013-05-20 20:10:00,
2013-05-20 16:11:00,65.2,64.0,30.61,East,94,0.0,0.0,96,0.00,,,0.00,TxWx,2013-05-20 20:11:00,
2013-05-20 16:12:00,65.2,64.0,30.60,East,83,1.5,1.5,96,0.00,,,0.00,TxWx,2013-05-20 20:12:00,
2013-05-20 16:13:00,65.2,64.0,30.61,East,82,1.5,1.5,96,0.00,,,0.00,TxWx,2013-05-20 20:13:00,
2013-05-20 16:14:00,77.7,66.0,30.58,East,83,4.2,4.8,67,0.00,,,0.05,TxWx,2013-05-20 20:14:00,
2013-05-20 16:15:00,65.1,64.0,30.61,East,83,0.3,0.3,97,0.00,,,0.00,TxWx,2013-05-20 20:15:00,
2013-05-20 16:16:00,65.1,64.0,30.61,East,82,1.8,1.8,97,0.00,,,0.00,TxWx,2013-05-20 20:16:00,
2013-05-20 16:17:00,65.0,64.0,30.61,East,93,1.8,2.1,97,0.00,,,0.00,TxWx,2013-05-20 20:17:00,
2013-05-20 16:18:00,64.9,64.0,30.61,East,92,1.2,1.2,97,0.00,,,0.00,TxWx,2013-05-20 20:18:00,
2013-05-20 16:19:00,77.4,65.0,30.58,East,84,6.0,6.6,67,0.00,,,0.05,TxWx,2013-05-20 20:19:00,
2013-05-20 16:20:00,64.8,64.0,30.60,East,94,1.2,1.2,97,0.00,,,0.00,TxWx,2013-05-20 20:20:00,
2013-05-20 16:21:00,65.0,64.0,30.60,East,82,2.4,2.7,97,0.00,,,0.00,TxWx,2013-05-20 20:21:00,
2013-05-20 16:22:00,65.1,64.0,30.60,East,94,1.8,1.8,97,0.00,,,0.00,TxWx,2013-05-20 20:22:00,
2013-05-20 16:23:00,65.0,64.0,30.60,East,94,1.8,2.1,97,0.00,,,0.00,TxWx,2013-05-20 20:23:00,
2013-05-20 16:24:00,77.6,66.0,30.58,East,83,5.1,6.3,67,0.00,,,0.05,TxWx,2013-05-20 20:24:00,
2013-05-20 16:25:00,65.0,64.0,30.60,East,83,1.2,1.2,97,0.00,,,0.00,TxWx,2013-05-20 20:25:00,
2013-05-20 16:26:00,65.0,64.0,30.60,East,85,1.5,1.5,97,0.00,,,0.00,TxWx,2013-05-20 20:26:00,
2013-05-20 16:27:00,65.0,64.0,30.60,East,84,0.6,0.6,97,0.00,,,0.00,TxWx,2013-05-20 20:27:00,
2013-05-20 16:28:00,65.0,64.0,30.60,East,84,0.3,0.3,97,0.00,,,0.00,TxWx,2013-05-20 20:28:00,
2013-05-20 16:29:00,76.9,65.0,30.58,East,83,12.3,12.3,68,0.00,,,0.05,TxWx,2013-05-20 20:29:00,
2013-05-20 16:30:00,64.8,64.0,30.60,East,93,0.6,0.9,97,0.00,,,0.00,TxWx,2013-05-20 20:30:00,
2013-05-20 16:31:00,64.8,64.0,30.60,East,93,0.3,0.6,97,0.00,,,0.00,TxWx,2013-05-20 20:31:00,
2013-05-20 16:32:00,64.8,64.0,30.60,East,96,0.6,0.9,97,0.00,,,0.00,TxWx,2013-05-20 20:32:00,
2013-05-20 16:33:00,64.8,64.0,30.60,East,94,0.9,0.9,98,0.00,,,0.00,TxWx,2013-05-20 20:33:00,
2013-05-20 16:34:00,77.6,67.0,30.58,East,83,7.8,7.8,69,0.00,,,0.05,TxWx,2013-05-20 20:34:00,
2013-05-20 16:35:00,64.8,64.0,30.60,East,94,1.8,2.1,98,0.00,,,0.00,TxWx,2013-05-20 20:35:00,
2013-05-20 16:36:00,64.8,64.0,30.60,East,93,1.5,1.5,98,0.00,,,0.00,TxWx,2013-05-20 20:36:00,
2013-05-20 16:38:00,64.8,64.0,30.60,East,93,0.0,0.6,98,0.00,,,0.00,TxWx,2013-05-20 20:38:00,
2013-05-20 16:39:00,64.8,64.0,30.60,East,94,0.0,0.0,98,0.00,,,0.00,TxWx,2013-05-20 20:39:00,
2013-05-20 16:40:00,76.6,66.0,30.58,East,83,13.2,13.8,68,0.00,,,0.05,TxWx,2013-05-20 20:40:00,
2013-05-20 16:42:00,64.7,64.0,30.60,East,85,0.6,0.6,98,0.00,,,0.00,TxWx,2013-05-20 20:42:00,
2013-05-20 16:43:00,64.7,64.0,30.60,East,86,0.6,0.9,98,0.00,,,0.00,TxWx,2013-05-20 20:43:00,
2013-05-20 16:44:00,64.7,64.0,30.60,East,84,1.2,1.5,98,0.00,,,0.00,TxWx,2013-05-20 20:44:00,
2013-05-20 16:45:00,77.0,66.0,30.57,East,83,5.7,5.7,70,0.00,,,0.05,TxWx,2013-05-20 20:45:00,
2013-05-20 16:46:00,64.3,63.0,30.60,East,87,1.2,1.2,98,0.00,,,0.00,TxWx,2013-05-20 20:46:00,
2013-05-20 16:47:00,64.3,63.0,30.60,East,85,0.6,0.9,98,0.00,,,0.00,TxWx,2013-05-20 20:47:00,
2013-05-20 16:48:00,64.3,63.0,30.60,East,86,0.9,0.9,98,0.00,,,0.00,TxWx,2013-05-20 20:48:00,
2013-05-20 16:50:00,77.0,66.0,30.58,East,83,9.0,9.6,69,0.00,,,0.05,TxWx,2013-05-20 20:50:00,
2013-05-20 16:55:00,76.7,66.0,30.58,East,83,12.0,12.3,69,0.00,,,0.05,TxWx,2013-05-20 20:55:00,
2013-05-20 17:00:00,76.8,66.0,30.57,East,83,7.8,7.8,70,0.00,,,0.05,TxWx,2013-05-20 21:00:00,
2013-05-20 17:05:00,76.7,66.0,30.57,East,83,4.8,4.8,69,0.00,,,0.05,TxWx,2013-05-20 21:05:00,
2013-05-20 17:11:00,77.0,66.0,30.57,East,83,2.7,2.7,70,0.00,,,0.05,TxWx,2013-05-20 21:11:00,
2013-05-20 17:16:00,76.7,66.0,30.58,East,83,10.2,10.5,68,0.00,,,0.05,TxWx,2013-05-20 21:16:00,
2013-05-20 17:21:00,76.1,65.0,30.58,East,83,12.3,12.6,69,0.00,,,0.05,TxWx,2013-05-20 21:21:00,
2013-05-20 17:26:00,76.3,65.0,30.58,East,83,11.7,13.2,69,0.00,,,0.05,TxWx,2013-05-20 21:26:00,
2013-05-20 17:31:00,76.3,65.0,30.58,East,83,6.0,6.3,69,0.00,,,0.05,TxWx,2013-05-20 21:31:00,
2013-05-20 17:37:00,76.3,65.0,30.58,East,83,13.8,15.9,69,0.00,,,0.05,TxWx,2013-05-20 21:37:00,
2013-05-20 17:42:00,76.3,65.0,30.58,East,84,8.7,8.7,69,0.00,,,0.05,TxWx,2013-05-20 21:42:00,
2013-05-20 17:47:00,76.3,65.0,30.58,East,83,5.4,6.0,69,0.00,,,0.05,TxWx,2013-05-20 21:47:00,
2013-05-20 17:52:00,76.1,65.0,30.58,East,83,11.4,11.4,69,0.00,,,0.05,TxWx,2013-05-20 21:52:00,
2013-05-20 17:57:00,76.2,65.0,30.58,East,83,12.0,12.0,69,0.00,,,0.05,TxWx,2013-05-20 21:57:00,
2013-05-20 18:02:00,76.1,65.0,30.58,East,83,2.7,3.3,69,0.00,,,0.05,TxWx,2013-05-20 22:02:00,
2013-05-20 18:08:00,76.3,65.0,30.58,East,83,4.8,4.8,69,0.00,,,0.05,TxWx,2013-05-20 22:08:00,
2013-05-20 18:13:00,75.9,65.0,30.58,East,83,5.7,6.9,69,0.00,,,0.05,TxWx,2013-05-20 22:13:00,
2013-05-20 18:18:00,75.8,65.0,30.59,East,83,4.8,5.7,70,0.00,,,0.05,TxWx,2013-05-20 22:18:00,
2013-05-20 18:23:00,75.6,65.0,30.59,East,84,10.5,10.5,69,0.00,,,0.05,TxWx,2013-05-20 22:23:00,
2013-05-20 18:28:00,75.7,65.0,30.59,East,83,7.8,8.4,70,0.00,,,0.05,TxWx,2013-05-20 22:28:00,
2013-05-20 18:34:00,75.5,65.0,30.59,East,83,5.4,5.7,70,0.00,,,0.05,TxWx,2013-05-20 22:34:00,
2013-05-20 18:39:00,75.5,65.0,30.59,East,83,5.4,6.0,70,0.00,,,0.05,TxWx,2013-05-20 22:39:00,
2013-05-20 18:44:00,75.5,65.0,30.59,East,84,4.8,4.8,71,0.00,,,0.05,TxWx,2013-05-20 22:44:00,
2013-05-20 18:49:00,74.8,65.0,30.60,East,83,9.9,9.9,71,0.00,,,0.05,TxWx,2013-05-20 22:49:00,
2013-05-20 18:54:00,75.0,65.0,30.60,East,83,8.4,9.3,71,0.00,,,0.05,TxWx,2013-05-20 22:54:00,
2013-05-20 18:59:00,74.8,65.0,30.59,East,83,4.5,4.8,72,0.00,,,0.05,TxWx,2013-05-20 22:59:00,
2013-05-20 19:04:00,74.6,65.0,30.59,East,83,6.9,6.9,72,0.00,,,0.05,TxWx,2013-05-20 23:04:00,
2013-05-20 19:09:00,74.4,64.0,30.58,East,83,9.6,11.1,72,0.00,,,0.05,TxWx,2013-05-20 23:09:00,
2013-05-20 19:14:00,74.2,65.0,30.58,East,83,3.6,3.6,73,0.00,,,0.05,TxWx,2013-05-20 23:14:00,
2013-05-20 19:19:00,74.1,65.0,30.58,East,83,6.6,6.6,73,0.00,,,0.05,TxWx,2013-05-20 23:19:00,
2013-05-20 19:25:00,73.8,65.0,30.58,East,83,3.3,3.3,73,0.00,,,0.05,TxWx,2013-05-20 23:25:00,
2013-05-20 19:30:00,73.7,65.0,30.58,East,83,7.5,7.5,74,0.00,,,0.05,TxWx,2013-05-20 23:30:00,
2013-05-20 19:35:00,73.5,65.0,30.58,East,83,3.3,3.3,74,0.00,,,0.05,TxWx,2013-05-20 23:35:00,
2013-05-20 19:40:00,73.4,64.0,30.58,East,83,6.0,6.0,75,0.00,,,0.05,TxWx,2013-05-20 23:40:00,
2013-05-20 19:45:00,73.1,65.0,30.59,East,83,3.6,3.9,75,0.00,,,0.05,TxWx,2013-05-20 23:45:00,
2013-05-20 19:50:00,73.0,65.0,30.59,East,83,4.2,4.2,76,0.00,,,0.05,TxWx,2013-05-20 23:50:00,
2013-05-20 19:56:00,72.8,65.0,30.59,East,83,1.8,1.8,77,0.00,,,0.05,TxWx,2013-05-20 23:56:00,
2013-05-20 20:01:00,72.6,65.0,30.59,East,83,5.4,5.4,77,0.00,,,0.05,TxWx,2013-05-21 00:01:00,
2013-05-20 20:06:00,72.4,65.0,30.59,East,83,2.4,2.4,78,0.00,,,0.05,TxWx,2013-05-21 00:06:00,
2013-05-20 20:11:00,72.2,65.0,30.59,East,83,2.7,2.7,79,0.00,,,0.05,TxWx,2013-05-21 00:11:00,
2013-05-20 20:16:00,72.0,65.0,30.59,East,83,3.0,3.0,79,0.00,,,0.05,TxWx,2013-05-21 00:16:00,
2013-05-20 20:21:00,71.7,65.0,30.59,East,82,1.5,1.8,80,0.00,,,0.05,TxWx,2013-05-21 00:21:00,
2013-05-20 20:27:00,71.4,65.0,30.59,East,83,3.9,3.9,81,0.00,,,0.05,TxWx,2013-05-21 00:27:00,
2013-05-20 20:32:00,71.1,65.0,30.59,East,83,4.2,4.2,82,0.00,,,0.05,TxWx,2013-05-21 00:32:00,
2013-05-20 20:37:00,70.9,65.0,30.59,East,83,4.8,4.8,83,0.00,,,0.05,TxWx,2013-05-21 00:37:00,
2013-05-20 20:42:00,70.5,66.0,30.60,East,83,3.6,3.6,83,0.00,,,0.05,TxWx,2013-05-21 00:42:00,
2013-05-20 20:48:00,70.2,65.0,30.60,East,87,3.9,3.9,84,0.00,,,0.05,TxWx,2013-05-21 00:48:00,
2013-05-20 20:53:00,69.9,65.0,30.60,East,87,4.5,4.5,85,0.00,,,0.05,TxWx,2013-05-21 00:53:00,
2013-05-20 20:58:00,69.8,65.0,30.61,East,88,1.5,1.5,85,0.00,,,0.05,TxWx,2013-05-21 00:58:00,
2013-05-20 21:03:00,69.4,64.0,30.61,East,86,2.7,2.7,86,0.00,,,0.05,TxWx,2013-05-21 01:03:00,
2013-05-20 21:08:00,69.1,65.0,30.61,East,86,4.8,5.1,86,0.00,,,0.05,TxWx,2013-05-21 01:08:00,
2013-05-20 21:14:00,68.8,65.0,30.61,East,87,6.0,6.0,87,0.00,,,0.05,TxWx,2013-05-21 01:14:00,
2013-05-20 21:19:00,68.6,65.0,30.61,East,87,5.4,5.7,88,0.00,,,0.05,TxWx,2013-05-21 01:19:00,
2013-05-20 21:24:00,68.3,64.0,30.61,East,86,4.5,4.5,88,0.00,,,0.05,TxWx,2013-05-21 01:24:00,
2013-05-20 21:29:00,68.1,64.0,30.61,East,86,3.6,3.6,89,0.00,,,0.05,TxWx,2013-05-21 01:29:00,
2013-05-20 21:34:00,67.9,65.0,30.61,East,89,8.1,8.1,89,0.00,,,0.05,TxWx,2013-05-21 01:34:00,
2013-05-20 21:39:00,67.6,65.0,30.61,East,89,2.7,2.7,90,0.00,,,0.05,TxWx,2013-05-21 01:39:00,
2013-05-20 21:45:00,67.5,65.0,30.62,East,88,1.2,1.2,90,0.00,,,0.05,TxWx,2013-05-21 01:45:00,
2013-05-20 21:50:00,67.4,64.0,30.62,East,88,4.2,4.8,91,0.00,,,0.05,TxWx,2013-05-21 01:50:00,
2013-05-20 21:55:00,67.2,64.0,30.62,East,87,4.8,5.4,91,0.00,,,0.05,TxWx,2013-05-21 01:55:00,
2013-05-20 22:00:00,67.0,64.0,30.62,East,85,4.2,4.2,92,0.00,,,0.05,TxWx,2013-05-21 02:00:00,
2013-05-20 22:05:00,66.8,65.0,30.61,East,85,4.8,4.8,92,0.00,,,0.05,TxWx,2013-05-21 02:05:00,
2013-05-20 22:10:00,66.5,65.0,30.61,East,86,3.0,3.0,93,0.00,,,0.05,TxWx,2013-05-21 02:10:00,
2013-05-20 22:15:00,66.5,64.0,30.61,East,86,3.3,3.6,93,0.00,,,0.05,TxWx,2013-05-21 02:15:00,
2013-05-20 22:20:00,66.4,64.0,30.61,East,85,3.3,3.6,94,0.00,,,0.05,TxWx,2013-05-21 02:20:00,
2013-05-20 22:25:00,66.4,64.0,30.61,East,87,3.3,3.6,94,0.00,,,0.05,TxWx,2013-05-21 02:25:00,
2013-05-20 22:30:00,66.4,64.0,30.61,East,85,4.2,4.2,94,0.00,,,0.05,TxWx,2013-05-21 02:30:00,
2013-05-20 22:35:00,66.5,64.0,30.61,East,86,3.9,3.9,94,0.00,,,0.05,TxWx,2013-05-21 02:35:00,
2013-05-20 22:41:00,66.5,64.0,30.61,East,86,3.6,3.9,94,0.00,,,0.05,TxWx,2013-05-21 02:41:00,
2013-05-20 22:46:00,66.5,64.0,30.61,East,88,4.2,4.2,94,0.00,,,0.05,TxWx,2013-05-21 02:46:00,
2013-05-20 22:52:00,66.6,65.0,30.61,East,87,0.3,0.6,94,0.00,,,0.05,TxWx,2013-05-21 02:52:00,
2013-05-20 22:57:00,66.7,65.0,30.61,East,88,0.9,0.9,94,0.00,,,0.05,TxWx,2013-05-21 02:57:00,
2013-05-20 23:02:00,66.5,65.0,30.60,East,87,3.9,4.5,94,0.00,,,0.05,TxWx,2013-05-21 03:02:00,
2013-05-20 23:07:00,66.5,64.0,30.61,East,86,4.2,4.5,95,0.00,,,0.05,TxWx,2013-05-21 03:07:00,
2013-05-20 23:12:00,66.3,64.0,30.61,East,85,3.6,3.6,95,0.00,,,0.05,TxWx,2013-05-21 03:12:00,
2013-05-20 23:17:00,66.2,64.0,30.61,East,86,1.5,1.5,95,0.00,,,0.05,TxWx,2013-05-21 03:17:00,
2013-05-20 23:22:00,66.3,65.0,30.60,East,85,3.6,3.6,95,0.00,,,0.05,TxWx,2013-05-21 03:22:00,
2013-05-20 23:28:00,66.6,66.0,30.60,East,86,3.6,3.6,95,0.00,,,0.05,TxWx,2013-05-21 03:28:00,
2013-05-20 23:33:00,66.5,64.0,30.60,East,88,4.2,4.2,95,0.00,,,0.05,TxWx,2013-05-21 03:33:00,
2013-05-20 23:38:00,66.1,64.0,30.60,East,86,3.6,3.6,95,0.00,,,0.05,TxWx,2013-05-21 03:38:00,
2013-05-20 23:43:00,65.9,65.0,30.60,East,85,2.1,2.1,95,0.00,,,0.05,TxWx,2013-05-21 03:43:00,
2013-05-20 23:48:00,65.7,65.0,30.61,East,91,2.1,2.1,95,0.00,,,0.05,TxWx,2013-05-21 03:48:00,
2013-05-20 23:53:00,65.5,65.0,30.61,East,92,2.1,2.4,96,0.00,,,0.05,TxWx,2013-05-21 03:53:00,
2013-05-20 23:59:00,65.9,65.0,30.61,East,83,2.4,2.4,97,0.00,,,0.00,TxWx,2013-05-21 03:59:00,